Date String (YYYY-MM-DD hh:mm:ss) UTC,Instrument flags,Ambient pressure (hPa),Sample flow (lpm),Bypass flow (lpm),Sample temperature (°C),Ambient temperature (°C),ASC tube jacket temperature (°C),LED temperature (°C),Box temperature (°C),Sample RH (%),Span deviation,Mass concentration (μg/m³),Mass concentration (μg/m³),Mass concentration (μg/m³)
DateTimeUTC,F1_M11,P_M11,Q1_M11,Q2_M11,T1_M11,T2_M11,T3_M11,T4_M11,T5_M11,U1_M11,ZSPAN_M11,X0_M11,X2_M11,X1_M11
2021-11-16 09:00:00,,0820.4,5.00,0.00,30.1,29.2,00.0,39.1,31.8,09.0,0000.0,0000.46,0000.29,0000.22
2021-11-16 09:01:00,,0820.4,5.00,0.00,30.1,29.2,00.0,39.1,31.7,08.9,0000.0,0000.46,0000.29,0000.22
2021-11-16 09:02:00,,0820.4,5.01,0.00,30.1,29.2,00.0,39.1,31.7,09.0,0000.0,0000.53,0000.31,0000.22
2021-11-16 09:03:00,,0820.4,5.00,0.00,30.1,29.2,00.0,39.1,31.7,09.0,0000.0,0000.52,0000.31,0000.22
2021-11-16 09:04:00,,0820.5,5.00,0.00,30.1,29.2,00.0,39.1,31.7,09.0,0000.0,0000.47,0000.29,0000.22
2021-11-16 09:05:00,,0820.5,5.00,0.00,30.1,29.3,00.0,39.1,31.8,09.0,0000.0,0000.51,0000.32,0000.22
2021-11-16 09:06:00,,0820.6,5.00,0.00,30.1,29.3,00.0,39.1,31.7,08.9,0000.0,0000.54,0000.34,0000.22
2021-11-16 09:07:00,,0820.5,5.00,0.00,30.1,29.3,00.0,39.1,31.7,08.9,0000.0,0000.59,0000.36,0000.22
2021-11-16 09:08:00,,0820.6,4.99,0.00,30.1,29.3,00.0,39.1,31.7,09.0,0000.0,0000.62,0000.37,0000.22
2021-11-16 09:09:00,,0820.5,5.00,0.00,30.1,29.3,00.0,39.1,31.8,09.0,0000.0,0000.64,0000.38,0000.21
2021-11-16 09:10:00,,0820.4,4.99,0.00,30.1,29.3,00.0,39.1,31.7,09.0,0000.0,0000.63,0000.38,0000.21
2021-11-16 09:11:00,,0820.3,5.00,0.00,30.1,29.3,00.0,39.1,31.8,08.9,0000.0,0000.64,0000.38,0000.21
2021-11-16 09:12:00,,0820.3,5.00,0.00,30.1,29.3,00.0,39.1,31.8,08.9,0000.0,0000.63,0000.37,0000.20
2021-11-16 09:13:00,,0820.3,5.00,0.00,30.1,29.3,00.0,39.1,31.8,08.9,0000.0,0000.60,0000.38,0000.21
2021-11-16 09:14:00,,0820.3,5.00,0.00,30.1,29.2,00.0,39.1,31.8,08.9,0000.0,0000.57,0000.36,0000.21
2021-11-16 09:15:00,,0820.4,5.01,0.00,30.1,29.2,00.0,39.1,31.7,08.9,0000.0,0000.57,0000.36,0000.21
2021-11-16 09:16:00,,0820.5,5.00,0.00,30.1,29.2,00.0,39.1,31.7,08.9,0000.0,0000.53,0000.33,0000.21
2021-11-16 09:17:00,,0820.6,5.00,0.00,30.1,29.2,00.0,39.1,31.7,08.9,0000.0,0000.53,0000.32,0000.20
2021-11-16 09:18:00,,0820.6,5.01,0.00,30.0,29.2,00.0,39.1,31.7,08.9,0000.0,0000.53,0000.32,0000.21
2021-11-16 09:19:00,,0820.6,4.99,0.00,30.0,29.2,00.0,39.1,31.7,08.9,0000.0,0000.55,0000.33,0000.21
2021-11-16 09:20:00,,0820.6,5.01,0.00,30.0,29.2,00.0,39.1,31.7,08.9,0000.0,0000.50,0000.32,0000.21
2021-11-16 09:21:00,,0820.5,5.00,0.00,30.0,29.2,00.0,39.1,31.7,09.0,0000.0,0000.47,0000.30,0000.22
2021-11-16 09:22:00,,0820.5,5.00,0.00,30.0,29.2,00.0,39.1,31.7,08.9,0000.0,0000.56,0000.35,0000.22
2021-11-16 09:23:00,,0820.4,5.00,0.00,30.0,29.2,00.0,39.1,31.8,08.9,0000.0,0000.59,0000.37,0000.23
2021-11-16 09:24:00,,0820.5,5.00,0.00,30.0,29.2,00.0,39.1,31.7,08.9,0000.0,0000.59,0000.37,0000.23
2021-11-16 09:25:00,,0820.6,5.01,0.00,30.0,29.2,00.0,39.1,31.7,08.9,0000.0,0000.62,0000.38,0000.23
2021-11-16 09:26:00,,0820.5,4.99,0.00,30.0,29.1,00.0,39.1,31.6,08.9,0000.0,0000.64,0000.38,0000.23
2021-11-16 09:27:00,,0820.2,5.00,0.00,30.0,29.1,00.0,39.1,31.7,08.9,0000.0,0000.65,0000.39,0000.23
2021-11-16 09:28:00,,0820.1,5.00,0.00,30.0,29.1,00.0,39.1,31.7,08.9,0000.0,0000.62,0000.38,0000.24
2021-11-16 09:29:00,,0820.0,5.00,0.00,30.0,29.1,00.0,39.1,31.7,08.9,0000.0,0000.58,0000.37,0000.24
2021-11-16 09:30:00,,0820.2,5.01,0.00,30.0,29.1,00.0,39.1,31.7,08.9,0000.0,0000.60,0000.37,0000.23
2021-11-16 09:31:00,,0820.1,5.00,0.00,30.0,29.1,00.0,39.1,31.7,08.8,0000.0,0000.63,0000.38,0000.23
2021-11-16 09:32:00,,0820.2,5.00,0.00,30.0,29.2,00.0,39.1,31.7,08.7,0000.0,0000.63,0000.38,0000.23
2021-11-16 09:33:00,,0820.0,5.00,0.00,30.0,29.2,00.0,39.1,31.7,08.6,0000.0,0000.60,0000.36,0000.23
2021-11-16 09:34:00,,0820.0,4.99,0.00,30.0,29.2,00.0,39.1,31.7,08.9,0000.0,0000.58,0000.34,0000.23
2021-11-16 09:35:00,,0820.0,5.00,0.00,30.0,29.2,00.0,39.1,31.7,09.0,0000.0,0000.91,0000.32,0000.22
2021-11-16 09:36:00,,0820.0,5.00,0.00,30.0,29.2,00.0,39.1,31.7,09.0,0000.0,0001.92,0000.33,0000.22
2021-11-16 09:37:00,,0820.0,5.00,0.00,30.0,29.1,00.0,39.1,31.7,08.9,0000.0,0001.96,0000.35,0000.22
2021-11-16 09:38:00,,0820.1,5.00,0.00,30.0,29.1,00.0,39.1,31.7,08.9,0000.0,0001.98,0000.35,0000.22
2021-11-16 09:39:00,,0820.0,5.00,0.00,29.9,29.1,00.0,39.0,31.6,08.9,0000.0,0002.05,0000.36,0000.22
2021-11-16 09:40:00,,0819.9,5.00,0.00,29.9,29.1,00.0,39.0,31.6,08.9,0000.0,0002.07,0000.37,0000.22
2021-11-16 09:41:00,,0819.9,4.99,0.00,29.9,29.1,00.0,39.0,31.6,08.9,0000.0,0002.03,0000.35,0000.23
2021-11-16 09:42:00,,0819.9,5.00,0.00,29.9,29.1,00.0,39.0,31.6,08.9,0000.0,0002.01,0000.35,0000.23
2021-11-16 09:43:00,,0819.9,5.01,0.00,29.9,29.0,00.0,39.0,31.6,08.9,0000.0,0002.04,0000.37,0000.23
2021-11-16 09:44:00,,0819.9,5.00,0.00,29.9,29.0,00.0,39.0,31.5,08.9,0000.0,0002.08,0000.38,0000.23
2021-11-16 09:45:00,,0820.0,4.99,0.00,29.9,29.0,00.0,39.0,31.5,08.9,0000.0,0002.11,0000.39,0000.23
2021-11-16 09:46:00,,0820.0,5.02,0.00,29.8,29.0,00.0,39.0,31.5,08.9,0000.0,0001.92,0000.39,0000.24
2021-11-16 09:47:00,,0819.9,5.00,0.00,29.9,29.0,00.0,39.0,31.5,09.0,0000.0,0000.71,0000.38,0000.24
2021-11-16 09:48:00,,0819.9,5.00,0.00,29.9,29.1,00.0,39.0,31.5,09.0,0000.0,0000.76,0000.37,0000.24
2021-11-16 09:49:00,,0819.9,4.99,0.00,29.9,29.1,00.0,39.0,31.6,09.0,0000.0,0000.89,0000.39,0000.24
2021-11-16 09:50:00,,0820.0,5.00,0.00,29.9,29.1,00.0,39.0,31.6,08.9,0000.0,0000.83,0000.38,0000.24
2021-11-16 09:51:00,,0819.9,4.99,0.00,29.9,29.1,00.0,39.0,31.6,08.9,0000.0,0000.84,0000.40,0000.24
2021-11-16 09:52:00,,0819.9,5.00,0.00,29.9,29.1,00.0,39.0,31.6,08.9,0000.0,0000.85,0000.41,0000.24
2021-11-16 09:53:00,,0819.9,5.00,0.00,29.9,29.1,00.0,39.0,31.6,08.8,0000.0,0000.90,0000.42,0000.24
2021-11-16 09:54:00,,0819.9,5.00,0.00,29.9,29.1,00.0,39.0,31.6,08.8,0000.0,0000.96,0000.42,0000.24
2021-11-16 09:55:00,,0819.8,5.00,0.00,29.9,29.1,00.0,39.0,31.7,08.8,0000.0,0000.92,0000.41,0000.24
2021-11-16 09:56:00,,0819.8,5.00,0.00,29.9,29.1,00.0,39.0,31.7,08.8,0000.0,0000.90,0000.41,0000.25
2021-11-16 09:57:00,,0819.7,5.00,0.00,29.9,29.1,00.0,39.0,31.7,08.8,0000.0,0000.90,0000.41,0000.25
2021-11-16 09:58:00,,0819.7,4.99,0.00,29.9,29.1,00.0,39.0,31.6,08.8,0000.0,0000.90,0000.40,0000.24
2021-11-16 09:59:00,,0819.7,5.01,0.00,29.9,29.0,00.0,39.0,31.6,08.8,0000.0,0000.85,0000.40,0000.24
